Вернуться в каталог

STARLINK-30474

АктивенСвязьVLEO
NORAD 57897·PAYLOAD·🇺🇸 United States

Запущен Sep 20, 2023 с Cape Canaveral Space Force Station

Loading…

Ближайшие Пролёты (ближайшие 24 часа)

TLE

СвежийSource: CelesTrak SupGP

Эпоха: Sep 15, 2026, 01:33 UTC

1 57897C 23146G   26258.06506944  .00024900  00000+0  90204-3 0  2589
2 57897  43.0024 324.7207 0001515 263.2916 278.3865 15.27560607    16

Отслеживайте STARLINK-30474 в реальном времени с AllMySat

Download on the App Store